Weather in Kolin

Czech Republic     50°01′26″N   15°11′54″E
temp.,
°C
wind,
m/s
gust,
m/s
humid.,
%
clouds,
%
prec.,
mm/h
press.,
hPa
HPBL,
m
3 august, tue
tue323:00+14ssw22884 0.3 101515
02:00+13ssw22875 0.3 101620
05:00+12ssw22915 0.0 101619
08:00+15wsw22795 0.0 1016245
11:00+20wsw24605 0.1 10161223
14:00+23wsw3444100 0.1 10142120
17:00+24sw3443100 0.0 10121989
20:00+19wnw2263100 0.0 101211
4 august, wed
wed423:00+15ssw3587100 0.9 1014124
02:00+15w2492100 1.4 1015128
05:00+14s2292100 0.8 101558
08:00+15s2392100 1.4 1015200
11:00+16sw3483100 0.0 1015409
14:00+16nw3484100 0.1 1014259
17:00+19n2263100 0.0 1013892
20:00+17ne227496 0.0 101216
5 august, thu
thu523:00+16e1177100 0.0 101211
02:00+15sse0179100 0.0 101110
05:00+14ssw1196100 2.8 101041
08:00+14wnw2398100 7.0 1010153
11:00+15nnw2394100 3.7 1010331
14:00+15nw2393100 5.8 1009301
17:00+15nw1292100 0.3 1009240
20:00+15w239498 0.4 1009134
6 august, fri
fri623:00+14w2495100 0.0 1009141
02:00+13wsw229423 0.0 100936
05:00+13wsw379397 0.0 1009211
08:00+15w578846 0.0 1009437
11:00+17wsw567493 0.0 1009876
14:00+22w57499 0.0 10081890
17:00+22w365090 0.0 10071014
20:00+18wsw35725 0.1 100881
7 august, sat
sat723:00+15ssw33820 0.0 101041
02:00+14sw369213 0.0 1010111
05:00+14ssw3390100 0.0 101139
08:00+17ssw227599 0.0 1011183
11:00+23s235369 0.0 10101157
14:00+26s34427 0.0 10081707
17:00+26se564578 0.0 10061885
20:00+22ene4762100 0.0 1004101